Location: Most
(50.5133°N, 13.6207°E)
Time: 18:54:39
(UTC+02:00)

ISS - Pass Details

Date: 22 May 2019
Orbit: 407 x 410 km, 51.6° (Epoch: 23 May)

Event Time Altitude Azimuth Distance (km) Brightness Sun altitude
Rises 22:41:12 0° 261° (W) 2,331 0.4 -12.5°
Reaches altitude 10° 22:43:17 10° 263° (W) 1,472 -0.6 -12.7°
Maximum altitude 22:46:35 79° 350° (N) 422 -3.7 -13.0°
Drops below altitude 10° 22:49:54 10° 78° (ENE) 1,476 -1.2 -13.3°
Enters shadow 22:51:54 - 80° (E) 2,303 -0.2 -13.4°
